Clermont County, Batavia, OH

1:45 PM EST on December 08, 2019 (GMT -0500)
Clermont County, Batavia

Weather History for KI69 - October, 2019

Change the Weather History Date:

Wednesday, October 16, 2019

  Actual Average (KLUK) Record (KLUK)
Temperature  
Mean Temperature 55 °F -  
Max Temperature 65 °F 65 °F 84 °F (1962)
Min Temperature 45 °F 45 °F 32 °F (1991)
Degree Days  
Heating Degree Days 10    
Growing Degree Days 5 (Base 50)    
Moisture  
Dew Point 43 °F    
Average Humidity 77    
Maximum Humidity 97    
Minimum Humidity 62    
Precipitation  
Precipitation 0.47 in - - ()
Sea Level Pressure  
Sea Level Pressure 29.86 in    
Wind  
Wind Speed 10 mph (West)    
Max Wind Speed 18 mph    
Max Gust Speed 28 mph    
Visibility 10 miles    
Events Rain    
Averages and records for this station are not official NWS values.
T = Trace of Precipitation, MM = Missing Value Source: NWS Daily Summary

Daily Weather History Graph

Daily Weather History Graph

Search for Another Location

Airport or City:

Astronomy

Oct. 16, 2019 Rise Set
Actual Time 7:47 AM EDT 6:57 PM EDT
Civil Twilight 7:20 AM EDT 7:23 PM EDT
Nautical Twilight 6:49 AM EDT 7:54 PM EDT
Astronomical Twilight 6:18 AM EDT 8:25 PM EDT
Moon 8:50 PM EDT (10/16) 10:16 AM EDT (10/16)
Length of Visible Light 12h 03m
Length of Day
11h 09m
Waning Gibbous, 93% of the Moon is Illuminated
Oct 16
Waning Gibbous
Oct 21
Last Quarter
Oct 27
New
Nov 4
First Quarter
Nov 12
Full

Hourly Weather History & Observations

Time (EDT) Temp. Windchill Dew Point Humidity Pressure Visibility Wind Dir Wind Speed Gust Speed Precip Events Conditions
12:16 AM 65.3 °F - 57.2 °F 75% 29.80 in 10.0 mi SSW 6.9 mph - N/A   Mostly Cloudy
12:35 AM 62.8 °F - 59.5 °F 89% 29.79 in 3.0 mi SSW 8.1 mph 27.6 mph 0.11 in Rain Heavy Rain
12:55 AM 62.1 °F - 59.7 °F 92% 29.79 in 10.0 mi SSW 6.9 mph - 0.18 in Rain Light Rain
1:15 AM 61.7 °F - 59.2 °F 91% 29.78 in 10.0 mi SSW 5.8 mph - N/A Rain Light Rain
1:38 AM 61.5 °F - 59.7 °F 94% 29.79 in 10.0 mi SSW 8.1 mph - N/A Rain Light Rain
1:56 AM 61.9 °F - 60.1 °F 94% 29.79 in 10.0 mi SW 9.2 mph - N/A Rain Light Rain
2:15 AM 61.9 °F - 60.1 °F 94% 29.79 in 10.0 mi SW 12.7 mph 16.1 mph 0.01 in Rain Rain
2:35 AM 61.2 °F - 60.3 °F 97% 29.76 in 10.0 mi South 10.4 mph 17.3 mph 0.03 in Rain Rain
2:55 AM 61.0 °F - 60.3 °F 97% 29.75 in 10.0 mi SW 8.1 mph - 0.04 in   Mostly Cloudy
3:18 AM 60.8 °F - 59.9 °F 97% 29.74 in 10.0 mi SSW 4.6 mph - N/A   Mostly Cloudy
3:36 AM 60.8 °F - 59.5 °F 96% 29.73 in 10.0 mi SW 4.6 mph - N/A   Mostly Cloudy
3:55 AM 60.6 °F - 59.2 °F 95% 29.71 in 10.0 mi SSW 4.6 mph - N/A Rain Light Rain
4:15 AM 60.8 °F - 59.5 °F 96% 29.71 in 10.0 mi SW 6.9 mph - 0.02 in Rain Rain
4:39 AM 53.4 °F - 50.5 °F 90% 29.75 in 10.0 mi NW 17.3 mph 20.7 mph 0.04 in Rain Light Rain
4:58 AM 51.6 °F - 48.4 °F 89% 29.76 in 10.0 mi NW 18.4 mph 27.6 mph 0.04 in   Drizzle
5:16 AM 49.6 °F - 46.8 °F 90% 29.77 in 10.0 mi NW 15.0 mph 27.6 mph 0.01 in Rain Light Rain
5:35 AM 48.6 °F - 46.6 °F 93% 29.77 in 10.0 mi NNW 12.7 mph 20.7 mph 0.03 in Rain Light Rain
5:55 AM 47.7 °F - 45.5 °F 92% 29.80 in 10.0 mi WNW 12.7 mph 17.3 mph 0.05 in Rain Rain
6:19 AM 46.9 °F - 45.9 °F 96% 29.78 in 7.0 mi NW 4.6 mph - 0.03 in Rain Light Rain
6:37 AM 46.8 °F - 45.5 °F 95% 29.79 in 7.0 mi WNW 9.2 mph - 0.06 in Rain Rain
6:56 AM 46.6 °F - 44.8 °F 93% 29.78 in 7.0 mi WNW 9.2 mph - 0.09 in   Unknown
7:15 AM 46.4 °F 44.3 °F 44.6 °F 93% 29.78 in 10.0 mi WNW 4.6 mph - 0.02 in   Unknown
7:35 AM 46.6 °F - 44.8 °F 93% 29.79 in 10.0 mi West 8.1 mph - 0.04 in   Overcast
7:59 AM 46.6 °F - 43.5 °F 89% 29.80 in 10.0 mi West 10.4 mph - 0.06 in   Overcast
8:17 AM 46.2 °F 40.5 °F 41.7 °F 84% 29.80 in 10.0 mi WNW 12.7 mph 19.6 mph 0.01 in   Overcast
8:35 AM 45.0 °F 41.2 °F 41.2 °F 87% 29.81 in 10.0 mi WNW 6.9 mph - 0.01 in   Scattered Clouds
8:59 AM 46.4 °F 40.7 °F 40.6 °F 80% 29.82 in 10.0 mi NW 12.7 mph 17.3 mph 0.01 in   Scattered Clouds
9:17 AM 46.4 °F 41.5 °F 41.5 °F 83% 29.83 in 10.0 mi NW 10.4 mph 17.3 mph N/A   Mostly Cloudy
9:35 AM 46.6 °F - 40.5 °F 79% 29.84 in 10.0 mi WNW 11.5 mph 20.7 mph N/A   Overcast
9:55 AM 46.6 °F - 40.8 °F 80% 29.85 in 10.0 mi NW 9.2 mph 16.1 mph N/A   Overcast
10:15 AM 46.2 °F 39.5 °F 39.9 °F 79% 29.85 in 10.0 mi WNW 16.1 mph 21.9 mph N/A   Overcast
10:39 AM 45.7 °F 40.6 °F 39.6 °F 79% 29.86 in 10.0 mi NW 10.4 mph 19.6 mph N/A   Overcast
10:57 AM 45.7 °F 41.0 °F 39.4 °F 79% 29.87 in 10.0 mi WNW 9.2 mph 16.1 mph N/A   Overcast
11:15 AM 45.9 °F 41.7 °F 38.8 °F 76% 29.87 in 10.0 mi WNW 8.1 mph 17.3 mph N/A   Overcast
11:35 AM 46.4 °F 40.4 °F 38.5 °F 74% 29.88 in 10.0 mi West 13.8 mph 20.7 mph N/A   Overcast
11:55 AM 46.6 °F - 37.6 °F 71% 29.88 in 10.0 mi West 11.5 mph - N/A   Overcast
12:19 PM 46.4 °F 41.5 °F 38.3 °F 73% 29.89 in 10.0 mi West 10.4 mph 16.1 mph N/A   Overcast
12:37 PM 46.4 °F 42.4 °F 38.3 °F 73% 29.90 in 10.0 mi West 8.1 mph - N/A   Overcast
12:55 PM 46.6 °F - 38.1 °F 72% 29.90 in 10.0 mi West 10.4 mph 19.6 mph N/A   Overcast
1:15 PM 46.9 °F - 37.9 °F 71% 29.89 in 10.0 mi West 9.2 mph - N/A   Overcast
1:36 PM 47.3 °F - 38.1 °F 70% 29.89 in 10.0 mi WNW 9.2 mph - N/A   Overcast
1:59 PM 47.5 °F - 38.3 °F 70% 29.89 in 10.0 mi WNW 10.4 mph - N/A   Overcast
2:17 PM 48.4 °F - 38.5 °F 69% 29.89 in 10.0 mi West 11.5 mph 17.3 mph N/A   Overcast
2:35 PM 48.2 °F - 37.9 °F 68% 29.88 in 10.0 mi West 9.2 mph 19.6 mph N/A   Overcast
2:55 PM 48.0 °F - 38.3 °F 69% 29.89 in 10.0 mi West 12.7 mph 18.4 mph N/A   Overcast
3:15 PM 48.2 °F - 38.5 °F 69% 29.89 in 10.0 mi West 10.4 mph 25.3 mph N/A   Overcast
3:39 PM 48.6 °F - 38.5 °F 68% 29.89 in 10.0 mi West 17.3 mph 21.9 mph N/A   Overcast
3:57 PM 48.4 °F - 38.5 °F 69% 29.89 in 10.0 mi West 10.4 mph 18.4 mph N/A   Overcast
4:35 PM 48.6 °F - 38.7 °F 69% 29.90 in 10.0 mi West 13.8 mph 18.4 mph N/A   Overcast
4:55 PM 49.1 °F - 39.0 °F 68% 29.90 in 10.0 mi West 10.4 mph 16.1 mph N/A   Overcast
5:18 PM 49.1 °F - 39.4 °F 69% 29.91 in 10.0 mi West 9.2 mph 18.4 mph N/A   Overcast
5:37 PM 49.1 °F - 39.7 °F 70% 29.91 in 10.0 mi West 8.1 mph - N/A   Overcast
5:55 PM 49.3 °F - 39.0 °F 68% 29.91 in 10.0 mi West 10.4 mph 19.6 mph N/A   Overcast
6:15 PM 49.5 °F - 39.2 °F 68% 29.92 in 10.0 mi West 8.1 mph 16.1 mph N/A   Overcast
6:35 PM 49.6 °F - 37.9 °F 64% 29.92 in 10.0 mi West 17.3 mph 23.0 mph N/A   Overcast
6:58 PM 49.6 °F - 37.9 °F 64% 29.93 in 10.0 mi West 10.4 mph - N/A   Overcast
7:17 PM 49.3 °F - 38.3 °F 66% 29.94 in 10.0 mi West 12.7 mph 18.4 mph N/A   Overcast
7:35 PM 49.5 °F - 37.8 °F 64% 29.94 in 10.0 mi WNW 9.2 mph - N/A   Overcast
7:55 PM 49.5 °F - 37.6 °F 64% 29.95 in 10.0 mi WNW 11.5 mph 17.3 mph N/A   Overcast
8:15 PM 49.5 °F - 37.4 °F 63% 29.96 in 10.0 mi West 15.0 mph 18.4 mph N/A   Overcast
8:38 PM 49.3 °F - 37.2 °F 63% 29.96 in 10.0 mi West 11.5 mph 17.3 mph N/A   Overcast
8:56 PM 49.3 °F - 37.0 °F 63% 29.96 in 10.0 mi West 10.4 mph 18.4 mph N/A   Overcast
9:15 PM 49.3 °F - 36.9 °F 62% 29.97 in 10.0 mi WNW 8.1 mph 18.4 mph N/A   Overcast
9:16 PM 49.1 °F - 36.9 °F 63% 29.97 in 10.0 mi West 9.2 mph 18.4 mph N/A   Overcast
9:35 PM 49.3 °F - 36.9 °F 62% 29.97 in 10.0 mi West 11.5 mph 17.3 mph N/A   Overcast
9:55 PM 49.5 °F - 36.9 °F 62% 29.98 in 10.0 mi WNW 11.5 mph 23.0 mph N/A   Overcast
10:18 PM 49.1 °F - 36.9 °F 63% 29.98 in 10.0 mi WNW 10.4 mph - N/A   Overcast
10:36 PM 49.1 °F - 36.9 °F 63% 29.98 in 10.0 mi West 11.5 mph 20.7 mph N/A   Overcast
10:55 PM 48.7 °F - 36.7 °F 63% 29.98 in 10.0 mi West 10.4 mph 16.1 mph N/A   Overcast
11:15 PM 48.6 °F - 36.9 °F 64% 29.99 in 10.0 mi West 10.4 mph 17.3 mph N/A   Overcast
11:35 PM 48.2 °F - 37.4 °F 66% 29.98 in 10.0 mi West 11.5 mph 16.1 mph N/A   Overcast
11:58 PM 47.8 °F - 37.6 °F 68% 29.98 in 10.0 mi West 11.5 mph - N/A   Overcast